Location: *
(51.0333°S, 178.4667°E)
Time: 03:22:54
(UTC+00:00)

Okean 2 Rocket - Pass Details

Date: 15 November 2019
Orbit: 617 x 641 km, 82.5° (Epoch: 14 December)

Event Time Altitude Azimuth Distance (km) Brightness Sun altitude
Exits shadow 10:22:41 25° 67° (ENE) 1,304 4.3 -17.9°
Maximum altitude 10:23:47 28° 92° (E) 1,219 4.4 -17.9°
Drops below altitude 10° 10:27:41 10° 150° (SSE) 2,071 6.3 -18.2°
Sets 10:30:12 0° 161° (SSE) 2,992 7.4 -18.3°
